This demonstration page uses our WeatherBlox Daily Observations layout. Learn more.

Left ArrowRight Arrow

Hourly Observations for June 21, 2018

Temp ( °F °C ) Dew Point ( °F °C ) Humidity (%) Winds ( mph kmh ) Pressure ( in mb ) Visibility ( mi km ) Precip ( " mm )
6:30 am 06:30 Cloudy 72 22 68 20 88 88 Calm 29.77 1008 10 16 N/A
6:47 am 06:47 Cloudy 73 23 66 19 78 78 SSW 3 6 29.77 1008 10 16 N/A
7:47 am 07:47 Cloudy 73 23 64 18 74 74 SW 6 9 29.77 1008 10 16 N/A
8:06 am 08:06 Cloudy with Light Rain 73 23 64 18 74 74 WSW 6 9 29.77 1008 4 6 N/A
8:26 am 08:26 Cloudy with Light Rain 70 21 66 19 88 88 WSW 6 9 29.77 1008 3 5 N/A
8:39 am 08:39 Cloudy with Light Rain 70 21 66 19 88 88 WSW 6 9 29.77 1008 2 2 N/A
8:45 am 08:45 Cloudy with Light Rain 70 21 66 19 88 88 WSW 6 9 29.80 1009 2 3 N/A
9:46 am 09:46 Cloudy with Light Rain 68 20 66 19 94 94 W 3 6 29.77 1008 3 5 N/A
9:59 am 09:59 Cloudy 70 21 66 19 88 88 Calm 29.77 1008 7 11 N/A
10:47 am 10:47 Cloudy with Light Rain 70 21 66 19 88 88 SSE 3 6 29.77 1008 3 4 N/A
11:23 am 11:23 Cloudy with Light Rain 72 22 68 20 88 88 SSE 3 6 29.77 1008 5 8 N/A
11:54 am 11:54 Cloudy with Light Rain 72 22 68 20 88 88 Calm 29.77 1008 4 6 N/A
12:46 pm 12:46 Cloudy with Light Rain 72 22 68 20 88 88 Calm 29.74 1007 3 5 N/A
1:18 pm 13:18 Partly Cloudy 72 22 68 20 88 88 Calm 29.74 1007 8 13 N/A
1:47 pm 13:47 Cloudy 72 22 66 19 83 83 Calm 29.74 1007 8 13 N/A
2:45 pm 14:45 Mostly Cloudy 73 23 68 20 83 83 SSW 6 9 29.71 1006 10 16 N/A
3:21 pm 15:21 Mostly Cloudy 77 25 68 20 74 74 SW 6 9 29.71 1006 10 16 N/A
3:45 pm 15:45 Mostly Cloudy 75 24 66 19 74 74 S 6 9 29.71 1006 10 16 N/A
4:16 pm 16:16 Mostly Cloudy with Light Rain 77 25 66 19 69 69 S 5 7 29.71 1006 7 11 N/A
4:45 pm 16:45 Mostly Cloudy 79 26 68 20 70 70 S 7 11 29.68 1005 10 16 N/A
5:45 pm 17:45 Mostly Cloudy 79 26 66 19 65 65 S 5 7 29.68 1005 10 16 N/A
6:52 pm 18:52 Mostly Cloudy 77 25 68 20 74 74 ESE 5 7 29.65 1004 10 16 N/A
7:45 pm 19:45 Mostly Cloudy 77 25 68 20 74 74 E 8 13 29.65 1004 10 16 N/A
8:45 pm 20:45 Mostly Cloudy 75 24 68 20 78 78 E 8 13 29.65 1004 10 16 N/A
9:21 pm 21:21 Cloudy with Rain 75 24 68 20 78 78 SSE 7 11 29.68 1005 1 2 N/A
9:32 pm 21:32 Cloudy with Light Rain 72 22 64 18 78 78 E 9 15 29.68 1005 2 3 N/A
9:50 pm 21:50 Cloudy with Light Rain 66 19 63 17 88 88 NNW 12 19 29.71 1006 2 3 N/A

Powered by AerisWeather